Wind_Speed
28 28 28 27 25 24 23 23 24 27 26 25 24 23 23 22 22 22 21 19 19 18 19 20 20 20 20 20 20 20 20 19 18 18 17 17 16 16 16 16 15 15 14 14 14 15 14 14 14 14 15 15 15 15 15 15 16 17 17 17 16 16 16 16 16 17 17 17 17 17 18 18 18 18 18 18 18 18 19 19 20 20 19 19 19
32 30 30 28 27 25 24 24 25 27 26 25 24 23 23 22 22 21 21 20 19 18 19 19 19 19 19 19 19 20 20 19 18 18 17 16 16 16 16 15 15 15 14 15 15 15 15 14 14 14 15 14 15 15 15 16 17 18 19 18 18 18 17 16 16 16 17 17 17 17 17 17 17 17 16 16 16 16 16 17 18 18 17 17 17
34 32 31 28 27 26 25 25 26 27 26 26 24 24 23 22 22 21 21 20 19 19 19 19 19 19 19 19 19 19 19 19 18 17 17 16 16 16 16 15 15 15 14 15 15 15 14 14 14 14 15 14 14 14 15 17 18 19 19 19 18 18 17 17 16 16 16 16 16 17 16 16 16 15 15 15 15 15 15 15 16 16 15 15 15
35 33 30 27 26 26 26 25 27 27 27 26 25 25 23 23 22 21 21 20 20 19 20 19 19 19 18 19 19 19 19 18 18 17 16 16 15 15 15 15 14 15 15 15 16 16 15 15 15 14 15 14 14 14 15 16 18 18 17 17 17 17 16 16 15 14 14 15 15 16 16 16 15 14 14 14 13 14 14 14 14 14 14 14 14
35 33 31 28 26 27 26 26 27 27 27 26 26 25 24 23 22 21 21 20 20 20 20 20 19 19 18 18 19 19 19 18 17 16 15 15 15 15 15 15 14 15 15 16 15 15 15 15 14 14 14 14 14 14 16 16 16 15 15 15 15 15 14 14 14 13 13 13 13 14 15 16 15 13 13 13 12 13 13 13 14 14 13 13 13
36 34 31 30 28 27 26 26 26 27 27 27 26 25 25 23 22 22 21 21 21 21 21 20 19 19 18 18 18 18 18 18 17 15 15 15 14 14 14 14 14 15 15 14 14 14 14 13 13 12 12 12 12 13 15 15 15 14 13 14 15 14 13 13 13 12 11 10 11 12 13 14 14 13 12 13 12 12 12 13 13 14 14 14 13
36 35 33 31 30 27 26 26 26 27 27 27 27 26 25 23 23 21 21 22 22 22 21 20 19 18 18 17 17 18 18 17 16 15 15 15 15 14 13 14 14 14 14 13 12 12 12 12 11 11 10 10 10 12 13 14 14 13 13 13 13 13 13 12 11 11 9 8 9 9 10 12 13 12 11 12 12 11 11 11 13 13 14 13 13
35 35 33 32 30 27 26 26 26 27 28 28 28 27 25 24 23 22 23 23 22 22 21 20 19 18 17 17 17 17 17 17 16 15 15 15 15 14 13 14 13 13 13 12 11 11 11 11 10 9 9 8 8 10 13 13 12 12 11 11 11 11 11 11 10 10 7 6 7 8 9 12 13 12 10 10 10 9 9 10 12 13 13 12 12
35 34 33 32 30 28 26 27 26 26 28 28 28 27 26 24 23 23 24 23 23 22 21 20 18 17 16 16 16 16 16 16 15 14 15 15 14 14 14 14 12 12 12 12 11 10 10 10 10 9 8 8 8 10 12 12 11 10 10 9 9 9 9 9 8 7 7 5 6 7 8 10 12 11 9 8 8 9 9 10 12 12 12 12 12
35 33 33 32 30 27 27 27 26 26 27 27 28 27 26 25 24 24 24 23 23 22 21 19 18 17 16 16 16 15 16 16 15 14 14 14 14 14 13 13 12 11 10 11 10 9 9 9 9 9 9 9 9 10 11 11 10 10 9 9 9 8 8 7 6 6 8 7 6 6 7 8 10 10 7 7 7 9 9 10 11 11 11 11 12
34 34 33 31 29 27 28 28 27 26 25 26 27 27 27 25 24 25 24 24 23 22 21 19 18 17 16 16 15 15 15 15 14 13 12 13 13 13 12 12 12 10 9 10 10 9 9 8 9 9 10 10 10 11 11 11 11 10 9 8 7 7 6 4 4 5 8 10 7 6 6 6 9 9 7 7 8 9 9 10 10 10 10 10 10
34 34 32 30 28 27 29 28 27 26 25 25 25 27 27 25 25 24 24 23 23 22 20 19 17 16 16 15 15 14 14 13 13 12 11 12 12 12 12 13 13 11 10 11 10 9 8 8 8 8 9 10 11 11 11 11 11 10 8 7 6 5 3 2 5 7 9 12 9 5 5 5 8 8 7 7 8 9 9 9 9 9 9 9 9
34 33 32 30 28 28 29 28 27 25 25 25 25 27 26 25 24 24 24 23 23 22 20 18 17 16 15 15 14 14 13 13 12 11 11 11 11 11 12 12 13 12 12 11 9 8 8 8 8 8 9 10 12 12 12 11 10 9 8 7 4 3 5 3 8 10 11 13 9 5 4 5 8 9 8 8 8 9 8 8 9 9 9 9 8
35 33 31 30 28 28 29 28 26 25 26 26 26 27 25 25 24 24 25 24 23 21 20 18 16 15 15 14 13 12 12 12 12 11 11 12 11 11 11 11 12 12 13 11 9 8 8 8 8 7 8 10 12 13 13 12 10 9 7 5 3 6 8 4 10 11 13 12 8 5 3 5 8 8 8 8 8 8 8 8 8 8 8 8 8
36 34 31 30 29 28 28 28 26 26 27 26 26 26 25 25 25 25 25 23 22 21 19 18 16 15 14 13 11 10 10 11 12 11 11 12 11 11 10 11 12 13 13 11 9 8 8 8 8 7 7 9 12 13 12 11 10 8 7 5 4 9 10 5 10 12 13 11 7 5 4 5 6 7 8 8 8 8 7 7 7 7 7 7 7
36 34 32 30 29 28 27 26 26 27 27 27 27 26 26 25 25 25 24 23 21 20 19 17 16 15 13 12 10 9 9 10 12 11 12 12 12 11 10 11 13 14 13 11 10 8 8 8 8 7 7 8 11 13 12 11 10 8 6 4 5 9 11 5 10 13 12 10 7 5 3 3 4 5 7 8 8 8 7 7 7 7 7 7 7
34 33 32 30 29 28 27 26 26 26 27 27 27 26 26 25 25 25 24 22 21 20 18 17 16 14 13 11 10 9 9 10 12 12 12 12 12 11 10 11 14 15 13 11 10 9 8 8 8 7 7 8 9 12 12 11 10 8 5 5 6 9 11 6 7 11 10 8 5 4 2 2 3 4 6 6 8 8 7 8 7 7 7 6 6
33 33 32 31 30 28 27 27 27 27 27 27 26 26 26 25 25 24 23 22 20 19 17 16 15 14 12 11 10 10 10 10 11 12 11 12 12 11 10 11 15 16 14 12 10 9 8 8 7 7 6 7 8 10 12 12 10 7 5 5 6 9 11 8 3 8 8 6 4 3 2 2 2 2 4 6 7 7 7 7 7 7 7 6 6
32 32 32 31 30 29 28 28 28 29 28 28 27 26 25 25 25 24 22 21 20 19 17 16 15 13 12 12 11 11 10 9 10 12 11 12 12 11 9 11 15 15 14 12 10 9 8 7 7 6 6 6 7 7 10 12 11 8 5 4 6 8 10 9 2 5 7 6 4 2 1 2 2 1 3 5 6 6 6 6 6 7 7 7 6
30 31 31 30 30 30 29 29 29 29 29 29 28 26 25 24 23 23 22 21 20 18 17 16 14 13 13 12 12 11 11 10 10 11 11 12 12 11 9 11 15 15 13 12 9 8 7 7 6 6 5 6 6 6 7 11 11 9 5 4 4 6 8 8 4 3 6 6 4 2 0 2 2 1 1 3 4 5 5 6 5 6 6 5 5
28 29 30 30 30 30 30 30 30 30 30 29 28 26 25 24 23 22 22 21 19 18 17 15 14 14 13 13 13 12 12 11 10 10 10 11 12 11 10 12 14 14 13 10 8 6 6 5 5 5 5 5 5 5 6 9 11 9 5 3 2 4 5 7 6 1 5 5 4 3 1 1 2 1 1 1 2 3 4 5 5 5 6 5 4
26 27 28 30 30 30 30 30 30 29 30 29 27 26 25 24 23 22 21 20 19 18 17 16 15 14 13 12 12 12 12 12 11 10 9 9 10 10 10 12 13 13 11 9 8 6 5 4 3 3 3 4 3 4 5 8 10 8 4 1 2 3 4 6 6 2 2 4 5 4 2 2 2 2 2 2 2 2 3 3 5 6 6 5 5
26 27 27 29 31 31 29 30 30 29 30 29 27 27 26 25 24 23 22 21 20 19 17 16 15 14 13 12 12 11 12 12 11 10 9 8 8 8 9 12 13 12 11 10 8 6 5 4 3 2 2 2 2 2 5 7 8 6 3 4 5 4 5 6 6 3 2 4 5 6 4 3 3 3 3 3 2 2 3 3 4 5 5 5 5
27 27 28 29 30 31 30 30 30 29 30 28 27 27 26 25 24 23 22 22 21 19 17 15 14 14 13 12 12 11 11 11 11 9 8 8 8 7 8 10 12 11 10 9 8 6 4 3 3 2 1 0 1 1 3 5 4 3 4 4 5 5 6 7 6 5 5 6 6 7 6 4 4 4 4 4 4 3 2 3 4 4 4 5 4
27 27 28 29 30 30 30 30 29 30 30 28 28 27 26 26 24 23 23 22 21 19 17 15 14 14 13 12 11 11 10 9 9 8 7 8 8 7 6 7 9 9 9 8 7 5 3 2 2 3 1 2 2 2 4 4 4 5 5 6 7 6 6 7 7 7 7 8 7 8 7 6 5 5 5 5 5 4 3 3 4 4 4 4 2
28 29 29 30 30 30 31 31 30 30 30 29 29 26 26 27 25 24 23 22 21 19 17 16 14 14 13 12 11 11 9 7 6 5 5 6 7 7 6 6 7 5 5 6 5 4 2 1 1 0 0 2 2 2 4 5 6 8 10 11 11 10 7 6 7 7 8 9 9 8 8 7 6 5 6 6 6 6 5 4 4 5 5 4 3
29 28 29 30 31 30 31 32 31 31 30 29 28 26 26 27 26 25 23 22 21 20 18 16 15 14 13 12 11 10 8 7 6 4 4 5 6 6 6 6 6 5 4 3 4 3 1 1 2 1 2 4 4 3 5 7 9 11 14 15 15 15 12 9 8 8 9 10 9 9 9 8 7 7 7 8 8 7 7 6 6 6 7 6 5
26 27 29 30 31 31 31 32 32 31 31 30 28 27 26 26 25 24 23 22 21 20 18 16 15 14 13 12 12 10 8 7 7 5 4 4 4 3 4 4 4 3 2 2 2 1 2 4 4 4 5 6 6 6 8 10 11 12 13 14 14 17 17 13 11 11 11 11 10 10 10 9 9 9 9 9 9 9 8 8 8 7 9 8 6
29 29 30 30 30 31 31 32 32 32 31 30 29 27 26 25 24 24 23 22 21 20 18 16 15 14 14 14 13 11 9 8 7 6 5 3 2 1 1 1 1 0 2 2 3 3 4 6 7 6 6 6 6 7 9 10 11 11 11 12 12 14 18 17 14 14 14 13 12 12 11 11 11 11 11 11 11 11 10 10 9 9 11 10 7
30 30 29 28 29 30 29 30 30 30 32 31 29 28 26 24 24 23 23 22 21 19 17 16 15 15 15 14 14 12 10 9 7 6 6 4 2 3 4 3 1 1 3 4 4 5 5 5 5 4 4 4 5 6 8 10 11 12 12 11 10 10 12 14 14 16 17 15 14 14 14 13 13 13 12 12 12 12 13 12 11 11 12 12 9
29 28 27 27 28 29 28 29 29 29 30 31 30 28 25 24 23 22 22 22 21 19 17 16 15 15 15 15 13 10 8 9 8 7 6 5 4 3 3 2 2 2 2 3 3 4 4 5 6 6 6 7 8 9 10 11 13 14 14 13 11 11 11 11 11 13 16 17 16 15 15 15 15 15 14 14 13 14 15 14 13 13 14 14 12
30 29 26 28 30 29 28 28 27 26 28 30 30 28 25 24 22 21 22 21 20 19 18 17 16 15 15 14 13 10 8 7 9 9 7 6 6 3 2 3 4 5 5 3 4 5 7 8 9 9 9 10 11 12 12 13 13 14 14 14 13 13 13 12 10 11 14 16 17 17 17 17 17 17 16 16 15 15 15 16 16 15 16 16 14
31 31 28 28 28 27 27 27 26 26 26 29 31 29 26 24 22 21 21 21 20 19 18 16 15 15 14 13 12 12 9 6 8 10 8 8 8 7 6 5 6 7 7 7 7 8 10 10 11 11 11 11 12 12 12 13 13 13 13 13 13 13 14 14 14 14 14 14 15 17 18 19 20 20 19 18 18 18 17 17 18 18 18 17 15
30 29 28 27 27 24 24 25 26 25 26 30 31 29 28 25 22 21 21 19 19 18 17 16 15 15 14 13 13 14 11 7 8 10 9 8 7 7 7 6 6 7 8 9 9 10 11 11 11 10 10 10 11 12 13 14 14 14 13 12 12 12 13 15 16 17 16 15 15 16 18 20 22 23 22 21 20 21 21 20 19 18 20 18 17
32 33 33 33 33 30 27 26 26 26 28 31 30 28 28 26 22 21 21 20 18 17 17 17 16 15 14 14 13 14 13 10 8 9 8 7 6 6 5 4 5 6 7 8 8 8 9 9 8 8 9 10 11 12 13 13 14 15 14 13 13 12 12 14 15 17 18 18 18 18 18 20 22 24 24 24 23 23 23 22 20 18 19 20 19
33 35 36 35 34 34 32 29 27 27 29 31 29 28 27 26 24 21 22 22 19 18 18 18 17 16 16 15 14 13 13 11 9 9 8 7 5 4 3 2 3 5 6 6 6 7 8 6 5 6 8 9 11 13 13 13 14 15 15 15 15 14 15 15 15 16 17 18 19 19 19 20 22 23 25 25 26 25 24 24 24 21 20 21 22
30 33 34 36 34 33 33 31 29 29 29 30 28 27 28 28 26 22 21 22 21 19 18 18 18 18 18 15 13 12 12 12 10 9 8 6 5 4 3 3 4 5 6 6 6 7 7 6 4 6 8 9 11 13 13 14 15 16 16 16 16 17 17 17 17 18 18 19 20 21 22 23 23 24 24 25 26 26 25 25 26 24 22 22 23
32 34 35 39 37 33 34 31 30 30 28 29 29 28 29 27 25 23 21 22 22 20 19 19 19 19 17 15 13 11 11 11 10 9 7 5 5 4 3 4 5 6 6 6 6 6 6 6 7 7 8 10 11 11 13 14 15 16 17 18 18 17 18 19 19 19 19 20 21 23 24 25 25 24 25 25 26 26 26 26 26 26 25 24 24
31 34 35 36 35 33 34 33 31 30 26 27 29 28 28 26 24 24 23 23 23 21 20 20 19 18 17 16 15 13 11 10 8 7 5 4 6 5 3 4 6 6 6 6 6 6 6 7 7 6 6 7 9 10 12 13 15 16 17 18 17 17 18 19 19 19 19 19 20 22 24 26 26 25 25 26 27 27 27 26 26 27 27 26 25
25 31 34 34 34 31 32 34 33 30 27 28 29 28 27 26 26 26 25 23 23 22 20 20 18 18 17 16 15 14 12 10 7 6 5 5 6 6 3 3 6 6 5 6 7 7 7 7 7 7 7 7 9 10 11 13 15 15 16 17 15 16 16 16 16 16 14 14 17 18 20 23 24 25 25 26 27 27 27 27 27 27 28 28 27
21 27 29 30 32 29 30 34 33 30 29 29 29 27 27 28 27 27 25 24 23 22 20 19 18 17 17 15 14 14 12 10 7 6 5 4 6 7 4 2 5 6 6 7 7 7 6 7 8 8 7 8 8 8 10 12 12 13 16 17 17 15 13 13 12 10 10 14 17 16 16 18 20 22 24 25 26 27 27 28 28 28 29 28 28
21 22 25 28 30 30 32 34 34 32 31 30 29 28 27 28 28 27 26 24 23 22 21 19 18 18 17 13 12 13 12 10 8 6 4 3 4 7 4 2 4 6 6 5 4 4 5 6 6 6 6 7 6 6 10 11 8 10 11 11 14 15 14 11 6 8 14 15 14 14 15 18 17 17 20 22 24 25 27 27 28 28 27 27 27
29 24 25 30 32 32 34 35 34 33 32 30 29 27 27 27 26 25 25 24 22 21 19 19 19 18 15 12 11 12 11 9 8 6 4 2 3 5 4 4 4 4 4 3 3 3 4 4 5 6 6 6 6 6 9 10 9 11 8 4 5 8 10 6 5 16 18 10 11 16 18 19 18 16 17 19 19 21 22 24 26 27 26 26 28
38 35 31 32 34 35 36 36 35 33 32 31 29 27 26 25 24 24 24 22 20 19 18 18 19 17 13 12 12 13 12 9 7 6 5 3 3 4 5 4 3 2 2 2 3 3 4 4 5 7 7 7 6 6 8 9 10 10 5 2 2 3 4 4 11 20 13 7 15 17 14 18 22 20 19 19 18 19 20 21 23 25 25 26 27
40 42 41 37 37 38 37 37 35 33 32 31 30 28 26 25 23 21 20 19 18 18 18 18 18 15 14 13 14 14 12 9 7 7 6 5 5 5 5 3 2 1 0 1 2 3 4 5 6 7 7 7 7 7 7 8 10 8 3 2 2 2 2 4 10 11 8 13 17 12 11 18 22 22 21 20 20 21 21 21 22 22 23 22 23
38 43 44 39 37 38 37 37 36 34 32 31 31 30 28 27 24 23 22 20 19 19 20 20 18 16 15 15 15 14 12 10 8 8 8 7 6 6 5 3 3 3 3 2 2 3 3 4 5 6 6 6 6 6 7 9 10 7 4 4 5 5 6 7 6 3 9 15 10 9 15 18 18 20 22 23 22 23 23 23 23 22 21 21 21
41 43 40 36 35 37 37 37 37 35 33 32 31 30 30 28 26 25 25 24 23 22 20 19 17 17 17 16 15 13 12 11 10 8 8 8 7 6 5 4 3 3 3 2 3 3 3 3 4 4 5 6 6 7 8 10 10 8 7 8 8 9 10 8 4 3 7 7 6 13 18 17 18 21 22 22 22 22 23 23 24 23 22 21 21
39 41 39 38 38 39 37 36 37 36 35 33 32 31 31 29 26 25 25 25 25 23 20 18 18 19 19 17 15 14 14 13 11 10 9 8 7 6 6 5 4 3 2 2 3 2 2 3 3 4 5 6 7 8 9 10 10 10 11 11 10 10 10 10 9 7 5 4 6 12 16 20 23 23 21 21 22 23 23 23 23 23 23 22 21
36 39 39 41 42 41 37 35 35 35 35 34 31 30 30 29 27 26 24 23 22 22 20 19 20 21 19 17 16 16 15 14 12 10 8 8 7 6 5 4 3 2 2 2 2 2 3 4 4 5 6 7 7 8 9 10 10 11 12 12 12 12 11 10 9 8 6 5 5 5 11 20 22 23 23 22 23 25 23 22 22 22 22 23 23
38 38 37 37 39 39 37 35 34 34 34 33 31 29 28 28 27 26 24 21 20 20 21 21 22 21 20 18 17 17 16 14 12 10 9 8 7 6 4 3 2 2 1 1 1 2 3 4 4 4 5 5 6 7 9 9 9 10 10 12 12 12 10 6 5 7 6 6 5 4 9 13 14 21 25 24 26 26 22 20 20 20 21 22 23
39 37 35 36 37 37 36 35 32 32 32 31 30 28 27 27 27 27 25 23 23 23 23 23 23 22 22 21 18 17 16 15 13 11 9 7 6 5 3 3 3 2 1 1 2 2 3 3 3 4 4 5 6 8 8 8 8 9 9 9 11 11 10 7 8 11 8 5 5 4 7 11 12 18 24 25 27 25 21 19 19 19 19 19 21
Wind_Direction
163 161 160 159 158 157 157 157 155 156 155 154 152 148 145 141 139 134 133 133 130 127 125 124 122 119 118 118 117 117 116 114 112 110 108 106 106 105 104 101 101 100 100 101 102 101 99 98 99 102 103 101 99 98 97 99 104 108 107 102 100 99 98 96 95 95 94 92 90 89 88 88 88 88 88 87 86 85 85 84 83 81 80 81 83
162 160 160 159 159 158 158 157 157 158 157 156 153 150 146 143 141 137 136 135 134 130 129 126 124 122 120 120 119 120 117 115 114 112 111 109 108 107 105 104 103 101 102 103 103 100 99 99 100 103 101 99 97 97 97 99 102 104 105 102 101 100 98 97 96 95 94 93 90 88 86 85 86 88 89 90 89 88 87 86 85 83 82 82 81
156 157 159 159 159 159 159 157 158 159 158 157 154 152 148 145 143 139 138 137 137 134 131 128 126 124 122 123 122 122 120 118 116 116 115 113 111 109 108 107 106 105 105 104 103 102 102 101 99 100 98 97 96 98 99 102 105 104 103 102 101 99 98 96 94 94 95 97 95 93 89 87 85 86 87 90 92 92 91 91 91 89 88 88 85
155 156 157 157 160 159 159 158 159 159 158 158 155 153 149 147 144 141 140 139 139 136 134 129 128 126 125 126 124 125 122 121 119 118 117 115 114 111 111 109 109 108 107 105 104 105 104 101 98 97 96 98 100 103 103 103 106 105 103 102 102 101 99 95 92 92 95 98 97 96 93 88 84 82 82 85 87 89 92 92 93 92 91 90 89
156 156 155 157 160 160 161 159 159 160 159 158 156 154 151 149 146 143 141 141 141 138 135 131 130 128 128 128 128 128 126 124 121 120 120 119 117 114 113 112 111 109 108 108 107 105 102 100 98 96 96 100 105 107 105 104 106 105 103 104 106 104 102 98 94 93 93 94 94 95 93 90 86 83 83 84 83 84 90 95 96 96 94 92 89
156 155 156 158 160 161 162 160 159 159 158 158 156 155 152 150 147 144 143 143 142 138 135 133 132 131 132 132 132 132 131 129 126 127 127 124 120 116 115 114 113 111 112 111 108 103 102 102 101 101 99 101 108 113 109 109 112 109 107 107 109 106 105 102 100 98 93 92 94 93 93 94 91 89 89 88 84 81 84 91 98 99 98 96 94
156 155 157 159 160 161 162 160 159 159 158 158 157 155 154 151 149 146 145 144 142 139 137 135 135 135 134 134 135 136 135 132 131 133 131 127 123 120 118 116 115 115 115 113 108 103 103 104 105 106 105 103 109 121 122 120 121 117 113 112 111 109 108 108 106 100 94 93 95 94 96 99 96 92 91 94 92 87 83 84 94 99 97 97 96
155 156 158 159 160 161 161 161 159 159 158 159 157 156 155 152 150 148 148 146 143 140 139 138 137 137 135 136 138 138 138 136 134 133 132 130 127 124 124 122 120 119 120 117 111 106 103 103 104 105 109 108 108 128 136 133 129 125 121 116 110 109 110 112 109 103 109 108 98 100 103 104 102 97 95 100 97 93 94 91 95 99 100 99 98
154 156 158 159 159 160 161 161 159 159 159 159 158 157 156 154 152 150 149 147 144 142 141 140 138 138 137 139 140 140 140 141 138 137 137 133 131 132 130 128 129 128 127 123 112 106 105 101 101 100 106 108 106 126 142 142 137 134 128 120 113 109 110 112 107 111 139 138 113 111 106 109 110 105 102 97 89 92 100 101 100 99 100 101 100
154 156 159 159 158 159 161 160 158 159 158 158 158 157 157 155 154 152 150 146 145 144 143 142 141 140 140 141 142 142 143 146 144 143 142 139 139 141 137 134 135 131 127 126 113 108 106 101 101 97 100 103 105 118 137 143 142 142 135 129 122 115 113 109 100 119 154 158 140 121 110 116 116 110 107 95 87 92 95 98 99 96 98 100 100
154 156 158 158 157 160 160 159 158 158 157 157 157 157 158 157 155 152 149 147 146 145 144 144 144 142 141 142 142 144 146 149 147 145 145 144 145 146 141 133 133 130 130 131 120 114 110 105 101 96 96 100 108 119 133 141 145 146 142 138 129 122 113 104 118 141 170 178 170 133 119 121 118 113 113 105 100 100 96 97 100 100 100 101 102
154 156 157 157 157 160 160 158 158 157 157 157 156 158 159 158 154 151 149 148 148 147 146 146 146 145 143 143 144 145 146 149 149 149 149 148 146 146 139 133 138 143 143 136 126 119 113 109 104 97 97 105 118 128 137 142 147 148 147 142 133 123 76 55 155 168 178 183 180 143 123 117 118 118 118 115 110 107 104 103 103 103 101 99 99
153 156 155 155 157 160 159 157 157 158 158 158 157 158 159 157 152 151 149 149 150 148 148 148 149 148 146 146 147 147 148 151 152 155 156 152 149 147 144 144 148 152 149 138 129 122 115 112 107 99 99 114 129 138 144 147 151 152 150 144 130 86 39 72 158 169 174 177 177 150 123 114 121 123 119 116 112 111 110 110 107 103 101 101 100
154 155 155 155 157 159 158 156 156 156 159 159 158 159 157 155 152 152 151 152 152 149 149 150 151 152 151 149 148 150 153 156 156 159 159 156 154 153 152 155 153 152 149 139 132 123 114 115 111 102 98 119 138 146 150 153 156 155 151 136 101 51 41 112 162 174 174 174 174 156 122 112 125 127 125 122 121 121 120 120 117 112 110 109 109
155 155 155 156 156 158 157 156 155 156 160 160 159 158 156 155 154 154 154 154 153 150 150 151 153 154 154 151 153 158 162 164 161 159 159 158 157 157 155 157 157 153 149 141 135 124 116 118 115 104 93 117 142 152 155 158 157 152 147 116 71 48 48 115 164 175 178 177 175 155 111 105 129 137 137 136 134 132 129 127 122 122 124 120 115
155 155 155 153 155 157 157 156 156 157 160 160 158 157 157 157 156 156 156 156 154 152 151 151 154 154 155 155 159 166 171 176 171 162 161 163 161 160 154 151 158 157 151 145 138 127 121 119 117 109 91 107 140 157 160 162 160 152 141 102 63 51 53 100 164 174 181 182 172 149 105 99 130 142 146 140 136 136 134 131 125 123 122 120 118
154 154 153 152 156 157 157 158 158 159 160 159 157 159 160 158 157 158 158 157 155 152 151 152 153 154 156 159 162 166 169 174 175 167 162 167 168 166 156 150 158 159 154 149 143 133 126 121 117 113 97 97 128 158 167 166 164 155 136 101 67 55 55 69 161 176 183 184 172 151 97 87 134 153 161 152 143 141 137 136 136 134 125 118 117
153 154 153 153 156 157 158 159 160 160 159 158 159 161 161 160 159 160 159 158 155 153 152 152 154 156 158 158 157 155 155 159 169 171 165 168 176 175 159 154 162 160 157 153 147 138 130 122 115 111 106 96 109 149 171 174 170 162 142 103 70 54 51 49 139 180 188 193 186 163 81 62 120 151 163 161 156 149 143 143 142 140 135 129 125
152 153 153 155 156 157 159 159 162 160 159 160 161 163 163 162 161 161 160 159 156 153 152 153 155 157 155 151 146 142 144 148 161 172 170 171 180 182 166 160 165 163 160 157 152 143 132 122 114 106 105 101 98 125 164 176 175 167 147 105 74 51 45 38 49 187 197 205 204 181 71 35 65 99 149 165 169 161 151 145 139 137 134 133 133
151 154 154 157 158 158 158 160 163 161 162 163 162 164 165 163 162 162 162 160 158 155 155 155 155 154 151 146 141 137 136 138 149 165 173 177 182 184 172 166 169 167 164 160 155 146 134 122 112 106 102 104 100 106 146 169 175 171 148 106 75 47 41 34 32 185 201 209 216 204 151 25 33 39 147 178 178 165 150 141 139 135 130 129 129
152 155 157 159 161 161 159 162 164 163 165 164 164 166 164 164 164 164 163 161 159 158 158 156 155 152 149 145 141 136 129 127 131 144 160 172 178 178 172 171 173 170 167 163 155 148 137 125 112 106 102 103 104 105 135 163 172 170 151 116 56 34 36 29 30 115 204 223 237 228 223 349 351 332 314 231 198 166 157 152 148 140 137 137 132
154 158 161 163 163 163 162 164 165 165 166 165 165 165 165 167 166 166 165 163 162 162 161 158 156 152 149 144 137 129 122 120 117 120 131 147 164 170 170 172 175 174 170 165 161 159 150 139 126 109 99 94 98 114 134 162 171 172 171 246 318 359 17 13 21 49 223 258 262 250 247 289 318 321 311 284 253 211 192 169 153 159 163 164 161
158 162 164 166 165 165 165 165 165 167 168 166 167 167 168 168 167 168 167 166 166 165 165 162 158 152 147 140 131 122 117 116 111 106 107 114 134 152 163 171 176 178 176 175 175 174 172 167 161 144 120 90 71 125 145 157 169 183 220 280 298 318 336 342 352 348 277 285 272 261 260 274 301 309 302 293 285 254 212 180 165 181 184 179 178
163 165 165 168 168 166 167 167 167 169 168 168 170 170 171 169 169 170 169 169 169 169 168 165 159 152 145 138 130 121 117 118 111 100 95 99 102 120 147 165 174 180 182 185 188 188 195 200 208 225 235 296 1 160 173 170 179 217 251 274 287 298 305 306 315 312 287 287 280 271 265 271 292 298 295 289 290 281 217 187 192 201 192 193 203
164 165 166 170 171 169 169 168 169 171 170 170 171 172 173 170 170 172 172 172 172 172 170 166 162 155 148 143 135 125 122 123 115 101 95 100 95 98 120 151 170 183 192 197 202 204 212 232 256 255 273 300 283 223 211 216 242 269 274 272 272 279 287 284 289 296 290 285 281 274 266 267 281 284 287 286 286 279 246 208 211 221 211 212 236
167 168 168 170 171 171 171 170 172 174 174 173 172 174 174 172 173 174 174 174 174 173 171 169 166 160 156 153 146 139 135 137 136 118 108 112 105 98 104 131 144 156 183 199 199 182 143 78 23 276 310 323 299 235 236 247 267 288 294 287 276 269 268 270 276 280 283 283 278 270 262 262 269 274 282 284 284 274 260 238 226 234 235 231 241
168 168 168 169 171 172 173 172 173 176 177 176 174 174 175 176 176 175 176 175 175 175 173 170 168 165 162 161 157 152 150 160 171 154 135 127 114 101 99 125 133 118 123 149 162 152 116 36 35 29 341 320 313 296 282 282 290 302 307 301 284 270 264 260 262 263 268 275 273 265 259 261 264 270 278 281 280 272 264 255 241 234 242 247 245
165 168 170 169 171 173 174 174 175 178 180 179 177 176 178 179 178 178 179 176 177 177 174 170 169 168 167 166 164 163 165 175 187 184 171 146 122 107 97 117 134 116 107 141 169 200 312 316 301 295 311 310 300 292 294 301 303 311 319 318 298 275 265 260 256 257 262 266 266 263 261 265 266 270 275 275 276 270 264 259 253 240 244 255 252
168 169 170 170 172 173 173 175 178 180 182 182 180 179 180 182 181 181 180 178 179 178 174 172 170 170 171 170 169 171 176 180 189 194 190 169 152 224 213 141 99 24 303 273 255 274 303 319 307 288 297 302 289 280 289 302 306 313 322 331 322 287 268 264 261 260 263 265 264 264 267 269 268 270 271 268 269 265 263 260 256 246 248 258 254
170 168 167 169 172 172 173 176 179 182 184 184 183 181 181 184 184 183 182 181 180 179 177 175 172 173 173 173 173 176 183 189 196 199 201 202 210 227 224 230 274 300 301 290 269 278 295 316 318 308 315 317 310 299 300 304 303 309 317 326 332 314 283 274 270 263 262 264 265 268 270 271 269 269 267 266 265 263 263 260 254 244 245 256 256
166 163 164 167 169 171 175 178 180 183 184 185 185 183 182 185 185 184 184 184 182 181 181 178 176 176 174 175 177 180 193 206 209 212 220 219 198 187 185 195 229 242 280 302 271 277 289 299 306 309 313 315 314 310 308 306 300 301 308 313 316 318 309 298 289 272 265 265 267 268 268 268 268 267 266 266 265 265 264 259 255 245 238 248 253
161 161 163 166 168 172 175 180 183 184 185 186 185 183 183 184 184 184 185 184 184 184 185 184 181 178 175 177 180 185 199 215 215 218 224 209 193 198 199 197 219 237 257 271 260 265 273 283 290 290 292 295 297 298 301 302 301 301 305 311 312 311 309 302 295 285 276 273 273 271 269 268 268 267 267 267 264 263 262 259 259 249 239 243 244
158 160 162 161 165 170 175 182 185 185 187 184 184 184 184 183 184 186 185 182 185 189 189 187 183 178 176 179 187 194 200 200 196 200 203 201 209 229 235 232 238 252 263 263 263 269 275 281 285 288 290 294 298 302 303 303 305 307 309 313 313 311 308 302 297 293 286 280 280 279 275 272 270 268 267 266 264 260 258 260 260 249 242 243 237
153 154 155 156 161 168 176 185 186 186 186 181 182 184 184 185 187 188 186 184 188 194 197 193 185 180 181 186 192 199 202 190 179 187 196 207 223 234 237 243 256 271 276 275 279 284 288 291 293 295 300 306 311 313 314 313 312 310 311 315 313 308 303 300 300 299 293 287 286 285 282 276 272 269 266 265 265 262 260 260 258 248 242 243 238
155 153 156 161 166 169 175 187 189 186 183 180 181 183 183 187 189 188 187 187 189 194 197 191 185 185 188 192 198 204 206 199 190 196 208 220 229 234 240 254 270 279 282 286 290 293 299 304 304 307 313 319 320 320 318 316 314 310 308 310 312 312 305 299 299 298 296 294 291 287 284 280 275 270 267 266 266 265 263 260 257 253 247 243 241
153 152 155 160 167 169 171 184 190 185 182 181 180 181 183 187 189 187 187 187 186 186 186 185 187 191 192 197 205 210 209 205 204 208 215 221 225 229 240 261 270 276 284 291 296 304 310 312 320 319 317 320 320 321 320 317 315 312 309 306 305 307 304 300 299 297 296 295 293 289 286 283 278 273 269 268 267 267 266 261 261 263 256 247 242
140 147 154 159 165 168 169 179 188 185 183 184 184 187 188 189 189 185 185 188 188 184 181 183 187 190 193 199 202 202 199 197 199 200 201 207 212 218 234 258 269 278 285 288 295 305 305 301 313 309 303 309 316 320 322 321 318 316 314 309 307 304 300 298 297 296 295 292 290 289 287 285 281 277 272 270 269 269 269 265 264 265 261 252 244
144 156 162 165 165 166 167 176 187 185 185 189 189 191 189 188 188 184 184 185 185 184 181 182 185 191 198 197 189 185 185 187 189 186 184 193 201 211 236 253 261 269 275 282 288 295 298 298 309 308 297 300 309 318 322 324 321 318 316 314 313 307 301 300 299 298 295 293 292 291 290 288 284 279 274 273 272 272 270 268 266 263 261 257 250
155 162 164 165 164 165 168 173 181 179 180 182 177 176 178 177 177 177 178 178 178 181 183 188 193 201 204 195 184 179 178 182 187 184 181 190 200 214 235 235 241 255 274 282 282 290 298 303 315 324 318 307 313 324 325 324 320 317 315 313 311 308 304 304 302 300 298 298 300 298 293 289 284 281 279 276 275 274 273 271 269 264 261 259 256
158 160 162 165 163 165 165 166 172 172 171 171 168 167 167 166 166 169 172 175 179 184 189 197 203 207 204 193 184 180 175 175 189 196 195 204 211 220 230 222 231 247 274 282 281 289 298 305 316 326 330 326 327 334 335 331 327 326 326 321 315 310 309 309 307 307 310 317 322 315 302 293 286 282 282 280 276 274 274 273 271 267 264 262 259
163 164 164 165 162 162 162 163 168 170 170 173 174 172 168 166 167 169 172 175 182 188 193 200 206 207 200 191 186 184 177 172 189 201 203 226 226 221 221 222 238 251 268 280 285 288 297 308 316 324 336 343 344 352 352 346 343 342 337 331 327 325 324 322 318 327 338 337 336 326 308 298 291 287 285 282 280 279 277 275 273 269 266 265 262
168 171 165 163 162 164 168 168 170 173 175 178 181 181 178 175 173 175 179 182 187 192 196 200 204 204 199 192 188 186 181 176 184 190 196 235 223 210 218 246 256 265 274 286 294 296 308 319 331 345 4 11 8 8 2 358 356 344 334 326 329 334 337 338 341 349 343 336 340 336 316 306 304 303 297 289 287 288 286 282 275 270 268 267 265
165 173 171 166 166 172 174 172 173 176 178 180 183 185 184 183 181 183 186 188 190 194 198 199 200 201 200 197 193 186 182 178 177 179 185 198 193 199 229 259 258 264 277 298 322 331 342 352 3 9 16 20 17 7 4 7 358 346 339 321 335 336 335 353 351 335 337 340 345 339 325 317 318 320 313 304 302 300 297 291 281 275 275 271 266
162 170 177 175 174 177 177 174 174 176 179 181 183 185 185 184 186 187 188 190 191 190 193 195 196 199 200 196 190 184 182 182 180 181 188 192 192 211 235 249 238 240 274 311 343 356 7 13 13 8 6 8 5 357 359 6 0 355 348 302 316 317 315 346 334 331 341 340 331 335 329 323 323 322 319 314 313 311 306 299 288 283 283 276 269
163 169 178 182 180 180 178 176 175 176 179 181 183 186 186 184 184 182 184 185 184 184 186 190 194 196 193 185 182 182 184 187 186 186 199 208 205 214 225 228 209 182 113 30 28 30 26 20 14 7 4 5 2 355 352 356 356 354 342 301 311 297 291 329 330 330 336 324 325 334 328 321 320 320 320 316 313 313 308 303 297 292 288 280 272
167 171 177 182 181 179 178 177 177 178 180 182 184 187 187 186 185 181 180 179 176 181 187 189 189 185 180 177 180 186 188 188 189 193 202 203 194 195 197 186 165 134 109 93 73 58 43 32 25 15 10 11 5 356 349 344 344 344 337 318 299 279 284 313 325 313 318 321 324 325 320 319 319 318 318 317 316 314 311 307 303 299 293 283 274
171 173 176 180 180 178 179 179 179 180 181 185 187 188 188 189 191 189 186 183 178 181 189 189 182 174 173 178 184 189 189 186 185 179 179 181 178 175 170 158 143 122 107 95 82 66 53 43 29 19 11 5 357 350 347 343 340 337 332 325 312 298 294 298 294 290 314 317 309 313 316 319 319 316 315 317 318 318 315 312 308 303 297 287 277
171 173 174 177 180 180 181 181 181 181 183 187 189 190 190 191 193 192 189 187 183 182 184 183 176 172 174 180 183 181 179 175 171 164 163 171 174 169 166 163 149 124 109 89 71 53 40 24 0 354 348 344 344 342 343 345 340 332 332 333 328 322 313 299 285 281 289 298 304 308 313 316 316 316 316 317 319 320 318 314 310 306 300 292 281
173 175 176 177 179 180 181 182 182 183 184 188 189 190 192 193 192 190 187 186 186 181 179 176 172 174 177 179 175 171 170 165 163 164 163 168 168 166 170 169 155 125 100 83 66 44 27 17 0 353 346 340 343 345 345 345 341 334 333 333 328 325 323 315 297 277 261 275 296 303 312 317 316 315 316 317 319 321 319 314 309 305 300 295 287
179 180 178 177 178 179 180 181 182 183 184 187 188 188 191 193 191 189 186 184 182 177 173 171 171 176 178 170 161 163 165 159 155 156 156 159 160 163 170 161 147 132 117 101 63 36 24 25 15 5 359 350 349 352 348 345 344 340 336 332 328 325 322 320 307 294 276 260 264 276 301 311 312 311 315 318 320 323 321 316 312 305 300 297 291
183 182 179 179 179 178 178 179 181 182 183 185 188 189 190 191 190 187 184 182 179 174 170 169 174 180 176 163 150 153 159 152 149 149 149 155 158 157 160 151 144 139 120 84 55 41 26 23 13 3 4 358 356 0 358 355 353 346 341 336 329 325 319 311 307 306 293 262 269 278 289 298 297 300 310 317 319 322 323 320 318 312 304 301 296
Height
777 777 779 781 783 784 787 788 790 791 792 794 795 796 796 797 797 798 799 801 803 804 805 806 807 807 807 807 808 809 810 811 812 812 813 813 813 814 813 814 814 814 814 814 814 813 814 814 814 814 814 814 814 814 814 814 814 814 814 815 815 815 815 815 815 815 815 815 815 815 815 815 815 815 815 815 815 815 815 815 815 815 814 814 814
772 776 777 780 782 783 786 787 789 790 792 794 795 796 796 797 798 799 800 801 803 804 806 807 807 808 808 808 809 810 811 812 813 813 814 814 814 815 815 815 815 815 815 815 815 815 815 815 815 815 815 815 815 815 815 815 815 815 816 816 816 816 816 817 817 817 816 817 816 816 816 816 816 816 817 816 816 816 816 816 816 816 816 816 816
769 775 776 779 781 783 785 787 789 790 792 793 795 796 797 798 798 799 800 802 803 805 806 807 808 809 809 809 810 811 812 813 813 814 815 815 815 816 816 816 816 816 816 816 816 816 816 816 816 816 816 816 816 816 816 816 816 817 817 817 817 817 818 818 818 818 818 818 818 817 817 818 818 818 818 817 817 817 817 817 817 817 817 817 817
769 773 776 779 781 783 785 786 788 790 792 793 795 796 797 798 799 800 800 802 803 805 806 807 809 809 810 810 811 812 813 814 814 815 816 816 816 817 817 817 817 817 817 817 817 817 817 817 817 817 817 817 817 817 817 818 818 818 818 819 819 819 819 819 819 819 819 819 819 818 818 818 819 819 819 819 818 818 818 818 818 818 818 818 818
769 772 775 778 781 783 784 786 788 789 791 793 795 796 797 798 799 800 801 802 803 805 806 807 809 810 811 811 812 813 813 814 815 816 817 817 817 817 818 818 818 818 818 818 818 818 818 818 818 818 818 818 818 818 819 819 819 819 819 820 820 820 820 820 820 820 821 820 820 820 819 820 820 820 820 820 820 819 819 819 819 819 819 819 819
768 771 774 777 780 782 784 786 787 789 791 793 794 796 797 799 800 800 801 803 804 805 806 808 809 811 812 812 813 813 814 815 816 817 818 818 818 818 818 818 819 819 819 819 819 819 819 819 819 819 819 819 819 819 820 820 820 820 820 821 821 821 821 821 821 822 822 821 821 821 821 821 821 821 821 821 821 820 820 820 819 819 819 819 820
768 771 774 776 779 782 784 786 787 789 791 793 794 796 797 799 800 801 802 803 804 805 806 808 809 811 812 813 814 814 815 815 817 817 818 819 819 819 819 819 819 820 820 820 820 820 820 820 820 820 820 820 820 820 821 821 821 821 821 821 822 822 822 822 822 823 823 823 822 822 822 822 822 822 822 822 822 821 821 821 820 820 820 820 820
768 770 773 776 778 781 784 786 787 789 791 793 794 796 798 799 800 801 802 803 804 805 807 808 810 811 812 814 814 815 816 816 817 818 819 819 819 820 820 820 820 820 820 821 821 821 821 820 820 820 820 821 821 821 821 821 822 822 822 822 823 823 823 823 823 824 824 824 823 823 823 823 823 823 823 823 822 822 822 822 821 821 821 820 820
768 770 773 776 778 781 783 785 787 789 791 793 794 796 798 799 800 801 802 803 804 805 807 808 810 812 813 814 815 816 816 817 817 818 819 819 820 820 820 821 821 821 821 821 821 821 821 821 821 821 821 821 821 822 822 822 822 823 823 823 824 824 824 824 825 825 824 824 824 824 823 823 823 823 824 823 823 823 822 822 822 822 821 821 821
768 771 773 775 778 781 783 785 787 789 791 793 795 796 798 799 800 801 802 803 804 805 807 808 810 812 813 814 815 816 816 817 818 819 819 820 820 820 821 821 821 822 822 822 822 822 822 822 822 821 822 822 822 822 823 823 823 824 824 824 824 825 825 825 825 825 825 825 825 824 824 824 824 824 824 824 824 823 823 823 822 822 822 822 821
768 771 774 776 778 781 783 786 787 789 792 793 795 796 798 799 800 801 802 803 804 805 807 809 810 812 813 814 815 816 817 817 818 819 820 820 820 821 821 821 822 822 822 823 823 823 822 822 822 822 822 822 823 823 823 824 824 824 824 825 825 825 825 825 825 825 825 825 825 825 825 825 824 824 824 824 824 824 824 824 823 823 823 822 822
769 772 774 777 779 781 783 786 788 790 792 793 795 796 798 799 800 801 802 803 804 805 807 809 810 812 813 815 816 816 817 818 818 819 820 820 821 821 821 822 822 822 823 823 823 823 823 823 823 822 823 823 823 823 824 824 825 825 825 825 825 825 825 825 824 824 824 824 825 825 825 825 825 825 825 825 824 824 824 824 824 823 823 823 823
770 772 774 777 779 782 784 786 788 790 792 794 795 796 798 799 800 801 802 803 804 805 807 809 810 812 813 814 815 816 817 818 819 819 820 820 821 821 822 822 822 823 823 823 824 824 824 823 823 823 823 823 824 824 824 825 825 825 825 826 826 826 825 824 823 823 824 825 825 825 825 825 825 825 825 825 825 825 824 824 824 824 824 823 823
769 772 775 777 780 783 784 787 789 790 792 794 795 797 798 799 800 801 802 803 804 806 807 809 811 812 813 814 815 816 817 817 818 819 820 820 821 821 822 822 822 823 823 824 824 824 824 824 824 824 824 824 824 824 825 825 825 826 826 826 826 826 825 823 823 823 824 825 825 826 825 825 825 825 825 825 825 824 824 824 824 824 824 824 824
769 772 775 778 781 784 785 787 789 791 792 794 796 797 798 799 800 801 802 804 804 806 807 809 811 812 813 814 815 816 817 817 818 819 820 820 821 821 821 822 822 823 824 824 824 825 825 825 825 824 824 824 824 825 825 825 826 826 827 827 827 826 825 823 823 824 824 825 826 826 825 825 825 825 825 824 824 824 824 824 824 824 824 824 824
770 772 776 779 782 784 786 788 789 791 792 794 796 797 799 799 800 801 803 804 805 806 808 810 811 812 813 814 815 816 816 817 818 819 820 820 821 821 821 822 822 823 824 824 825 825 825 825 825 825 825 825 825 825 825 826 826 827 827 827 828 827 826 824 824 824 825 826 826 825 825 825 825 825 825 824 824 824 824 823 824 824 824 824 824
772 773 776 779 782 785 786 788 790 791 793 794 796 797 799 799 801 802 803 804 805 807 808 810 811 812 813 814 815 816 816 817 818 818 820 820 821 821 821 822 822 823 824 825 825 825 826 826 826 826 826 825 825 826 826 826 827 827 827 828 828 827 827 826 825 825 826 826 826 826 825 825 825 825 825 825 825 824 824 823 823 823 824 824 824
773 775 777 780 783 785 786 788 790 791 793 794 796 798 799 800 801 802 804 805 806 807 808 810 811 812 813 814 815 816 816 817 818 818 819 820 821 821 821 822 823 823 824 825 825 826 826 826 826 826 826 826 826 826 826 827 827 827 828 828 828 828 827 827 826 826 827 827 826 826 825 825 825 825 825 825 825 825 825 824 824 824 824 824 824
775 777 778 781 783 785 786 788 789 791 793 794 796 798 799 800 802 803 804 805 806 807 809 810 811 812 813 814 815 816 816 817 818 818 819 820 821 821 822 822 823 824 825 825 826 826 827 827 827 827 827 827 826 826 827 827 827 828 828 828 829 828 828 827 827 827 827 827 827 826 826 825 825 825 825 825 825 825 825 825 825 825 824 824 824
777 778 779 782 783 784 785 788 789 791 793 794 796 798 800 801 802 804 805 806 807 808 809 811 812 813 814 814 815 816 817 817 818 819 819 820 821 822 822 823 824 824 825 826 827 827 827 827 827 827 827 827 827 827 827 827 828 828 829 829 829 829 828 828 827 827 827 827 827 827 826 825 825 825 825 825 825 825 825 825 825 825 825 825 825
779 779 780 782 783 784 785 787 789 791 793 794 797 798 800 802 803 805 806 807 807 809 810 811 812 813 814 814 815 816 817 818 818 819 820 820 821 822 822 823 824 825 826 827 827 828 828 828 828 828 828 828 827 827 827 828 828 829 829 829 829 829 829 828 828 827 827 827 827 827 827 826 825 825 825 825 825 825 825 825 825 825 825 825 825
778 779 781 781 783 785 785 787 789 792 794 795 797 798 801 802 804 805 806 808 808 810 810 811 812 813 814 815 816 817 818 818 819 820 820 821 821 822 823 824 825 826 826 827 828 828 828 828 828 828 828 828 828 828 828 828 829 829 829 829 829 829 829 828 828 828 828 828 827 827 827 826 826 825 824 824 824 825 825 825 825 825 825 825 825
777 778 780 781 783 784 786 788 790 792 794 796 798 799 801 802 804 806 807 808 809 810 811 812 813 813 815 815 817 817 818 819 820 820 821 821 822 823 823 824 825 826 826 827 828 828 828 828 828 828 828 828 828 829 829 829 829 829 830 829 829 829 829 829 828 828 828 827 827 827 826 826 826 825 824 824 824 824 824 824 824 825 825 824 824
774 776 778 781 783 784 786 788 790 793 794 796 798 800 801 803 805 806 807 808 809 810 811 812 813 814 815 816 817 817 819 819 820 821 822 822 822 823 824 824 825 826 827 827 827 828 828 828 828 828 828 829 829 829 829 829 830 830 830 830 829 829 829 829 828 827 827 827 827 827 826 826 826 825 825 824 824 823 823 823 823 824 824 824 824
772 775 777 779 782 783 785 788 791 793 795 796 798 800 801 803 805 806 808 808 809 810 811 812 813 814 815 816 817 818 819 820 821 822 822 823 823 824 824 825 825 826 827 827 828 828 828 828 828 828 828 828 829 829 829 830 830 830 829 829 829 828 828 828 827 827 827 827 826 826 826 826 826 825 824 824 824 823 823 823 823 823 823 823 823
769 771 774 777 780 783 785 787 791 793 795 796 798 800 802 803 804 806 807 808 810 810 811 812 813 814 815 816 817 818 819 820 821 822 823 824 824 824 825 825 826 826 827 827 828 828 828 828 828 828 828 828 828 829 829 829 829 829 829 828 828 827 827 827 827 826 826 826 826 826 826 825 825 825 824 824 823 823 822 822 822 822 822 822 822
767 770 773 776 779 782 784 787 790 792 795 797 798 800 802 803 804 806 807 808 809 810 811 812 813 815 815 816 817 818 819 820 821 822 823 824 824 825 825 826 826 827 827 827 828 828 828 828 828 828 828 828 828 828 828 828 828 828 828 827 826 826 826 826 826 825 825 825 825 825 825 825 825 824 824 823 823 823 822 822 822 822 821 821 822
768 771 773 776 779 781 784 786 789 792 794 797 798 800 802 803 805 806 807 808 810 811 812 813 814 815 815 816 817 818 819 820 821 822 824 824 825 825 826 826 827 827 828 828 828 828 828 828 828 828 828 827 827 827 827 827 827 827 826 825 825 825 825 825 825 824 824 824 824 824 824 824 824 824 823 823 822 822 822 821 821 821 821 821 821
766 769 773 776 779 782 784 786 789 791 794 796 798 800 802 804 805 806 808 809 810 811 813 813 814 815 815 816 817 818 819 820 821 822 824 824 825 826 826 827 827 828 828 828 828 828 828 828 828 828 827 827 827 827 827 827 827 826 826 824 824 823 824 825 824 824 823 823 823 823 823 823 823 823 823 822 822 822 821 821 820 820 820 820 820
763 768 773 777 780 784 786 788 789 792 794 796 799 800 802 804 806 807 808 809 810 811 813 813 814 814 815 816 817 818 819 820 821 823 824 824 825 826 826 827 827 828 828 828 828 828 828 828 828 827 827 827 827 827 826 826 826 825 825 824 824 823 823 823 824 823 823 823 822 822 822 822 822 822 822 821 821 821 820 820 820 819 819 819 819
765 770 774 778 782 785 787 789 791 792 795 797 799 801 803 805 806 807 808 809 810 811 812 812 813 814 815 816 817 818 819 820 821 823 823 824 825 826 826 827 827 827 828 827 827 828 828 828 828 827 827 826 826 826 826 825 825 824 824 823 823 823 823 823 823 822 822 822 822 821 821 821 821 821 820 820 820 820 820 819 818 818 818 818 818
764 771 775 779 782 786 789 790 792 794 796 798 800 802 803 805 806 807 808 809 810 811 811 812 813 814 815 816 817 818 819 820 821 822 823 824 825 825 826 827 827 827 828 828 828 828 828 828 828 827 827 826 826 825 825 824 824 823 823 822 822 822 822 822 822 822 822 821 821 821 820 820 820 819 819 819 819 819 819 819 818 817 816 816 816
764 770 776 781 786 789 792 793 794 795 797 798 800 802 803 804 806 806 808 809 810 811 812 813 814 815 816 817 818 818 819 820 820 822 823 824 825 826 826 827 827 828 828 828 828 828 828 828 827 827 826 825 825 824 824 823 823 822 822 821 821 821 821 821 821 821 821 821 820 820 819 819 818 818 817 817 817 816 816 816 816 816 815 815 815
764 770 777 783 788 792 795 796 796 796 797 798 800 801 802 804 806 807 808 809 811 812 813 814 815 816 816 817 817 818 819 819 820 821 822 824 824 825 826 826 827 827 827 827 827 827 827 827 826 826 825 825 824 823 823 822 822 821 821 820 820 820 819 819 819 819 819 820 819 819 818 817 817 816 815 815 815 814 814 813 814 814 814 814 814
762 766 773 779 784 788 793 796 796 795 796 797 798 800 803 804 806 808 809 810 811 812 813 815 815 816 816 817 817 817 818 819 820 821 822 823 824 825 825 826 826 827 827 827 827 827 826 826 826 825 824 824 823 823 822 822 821 820 820 819 819 818 818 818 818 818 818 818 818 817 816 816 815 814 813 813 812 812 811 811 811 811 812 812 812
762 764 769 775 781 783 787 792 794 794 795 796 798 801 803 805 807 808 809 811 812 813 813 814 815 815 816 816 816 816 817 818 818 819 821 822 823 824 825 826 826 826 827 827 827 826 826 826 825 825 824 823 823 822 822 821 820 819 818 818 818 817 817 817 817 817 817 816 816 815 815 814 812 811 811 810 810 810 809 809 808 808 808 809 810
764 767 770 773 778 782 784 788 792 793 794 796 798 800 803 805 806 808 809 810 811 812 813 813 814 814 814 815 815 815 816 817 817 818 819 821 822 823 824 825 826 826 827 827 826 826 826 826 825 825 824 823 822 822 821 820 819 818 817 817 816 816 815 815 816 816 815 815 814 813 812 811 810 809 808 808 807 807 808 807 806 806 806 806 807
765 768 770 771 774 778 780 784 789 792 794 796 797 800 802 804 805 806 807 808 810 811 811 812 812 813 813 814 814 815 816 816 817 817 818 820 822 823 824 825 825 826 826 826 826 826 826 825 825 824 823 822 822 821 820 819 818 817 816 816 815 814 814 814 814 814 814 813 812 812 810 809 808 807 806 806 805 805 805 805 804 804 803 803 804
769 768 770 771 773 776 775 778 786 791 794 796 797 799 801 802 803 804 806 807 808 809 810 811 812 812 812 813 814 815 816 816 817 817 818 820 821 823 823 824 825 826 826 826 826 826 825 825 824 823 822 822 821 820 819 818 817 816 815 814 813 813 812 812 812 812 812 812 811 810 808 806 804 804 804 803 803 802 802 802 802 801 801 801 801
774 771 772 772 773 776 776 777 784 789 792 795 797 798 799 800 801 803 804 806 807 808 810 810 811 812 812 813 814 815 814 814 816 817 818 819 821 822 823 824 825 825 825 826 825 825 825 824 823 822 821 820 820 819 818 817 815 814 813 812 812 811 810 810 810 810 811 810 809 808 805 803 802 803 802 801 801 800 799 799 799 799 799 798 799
777 774 774 774 774 777 778 778 782 787 791 794 796 797 797 798 799 800 802 804 806 807 808 810 811 811 812 813 814 814 814 813 815 817 818 819 820 822 823 823 824 825 825 825 825 824 824 823 822 821 820 819 819 818 817 816 814 813 811 810 809 809 809 809 809 810 810 809 808 806 802 800 801 802 801 800 799 798 798 797 797 796 796 796 796
777 777 774 773 774 776 778 777 779 783 787 791 795 796 796 796 796 798 800 802 804 806 807 809 810 810 811 812 813 814 813 813 814 816 817 819 820 821 823 823 824 824 824 824 824 824 823 823 821 821 820 819 818 817 816 815 814 813 811 809 807 806 807 808 808 809 809 808 806 804 801 800 801 802 800 798 797 797 796 795 794 794 794 794 794
772 777 776 773 772 774 776 777 778 781 784 788 793 795 796 796 796 798 799 801 803 805 807 808 809 810 810 812 813 813 814 813 813 815 817 819 820 821 822 823 824 824 824 824 823 823 823 822 821 820 819 818 818 817 816 815 814 813 812 811 810 808 807 807 807 808 808 807 805 804 801 798 800 801 799 797 796 795 794 792 792 792 792 792 792
761 769 774 773 770 772 774 775 777 779 783 786 790 793 795 796 797 798 800 801 803 805 806 807 808 809 810 811 812 813 814 814 814 815 817 819 820 821 822 823 823 823 823 823 823 822 822 821 821 820 819 818 817 817 816 815 815 814 813 813 812 812 811 808 807 806 806 806 805 803 801 798 797 798 798 796 794 793 792 791 790 790 790 789 789
753 758 765 768 767 769 771 774 776 778 781 784 788 791 793 794 796 798 800 801 803 804 805 806 807 809 810 811 812 813 814 815 815 816 817 818 820 821 822 823 823 823 823 822 822 822 821 821 820 819 819 818 817 817 816 815 815 814 814 814 814 814 813 810 808 806 805 805 804 803 801 799 797 796 795 794 793 792 790 790 789 788 787 787 787
749 752 757 762 764 767 769 771 773 775 778 782 785 788 790 792 794 796 798 799 801 802 803 804 806 807 809 810 812 813 814 815 815 816 817 818 819 821 821 822 822 822 822 822 821 821 821 820 820 819 819 818 817 816 815 815 814 814 814 814 815 815 812 810 810 808 805 803 803 802 801 799 797 796 794 793 791 790 788 787 787 786 785 785 785
744 748 754 759 762 765 767 768 770 773 776 779 782 785 787 790 792 794 796 797 798 800 802 803 804 806 808 810 811 812 813 815 815 816 817 817 819 820 821 821 822 822 822 821 821 821 820 819 819 819 818 818 817 816 815 814 814 813 813 813 813 813 812 811 811 810 807 804 802 801 800 798 797 795 794 792 790 788 786 785 784 783 783 783 782
742 746 750 754 758 761 764 766 768 771 773 777 780 782 785 788 791 794 796 797 798 799 800 802 803 805 807 809 811 812 813 814 814 815 816 817 818 819 820 821 821 821 821 821 821 820 819 819 818 818 818 817 816 815 815 814 813 812 812 812 812 811 811 810 810 810 809 806 802 800 798 797 795 794 793 791 789 787 785 784 782 781 780 780 780
743 745 746 748 752 756 760 764 766 769 771 774 778 781 784 786 790 793 795 797 798 799 799 800 802 804 806 809 810 812 813 813 813 814 815 816 818 819 819 820 820 821 820 820 820 819 819 818 817 817 817 817 816 815 814 814 813 812 811 811 810 809 809 808 808 808 808 807 804 801 798 796 793 791 791 790 788 786 784 782 781 779 778 777 777
742 744 746 748 750 753 757 761 764 767 770 773 777 780 783 786 789 792 794 796 797 798 798 799 801 803 806 808 809 811 812 811 812 813 815 816 817 818 819 819 820 820 820 819 819 819 818 817 817 817 817 816 816 815 814 813 813 812 811 810 809 808 808 807 807 807 806 806 804 802 800 797 793 789 788 788 786 784 782 781 779 778 777 775 774
740 743 745 748 750 752 755 759 763 766 769 773 777 780 783 786 789 791 793 795 796 797 797 798 800 802 805 807 809 811 811 810 811 813 815 816 817 818 818 818 819 819 819 819 818 818 817 817 817 817 816 816 815 814 814 813 812 812 811 810 809 808 807 807 806 806 805 804 803 801 800 799 796 790 787 786 784 782 781 779 778 776 775 774 773